Time,TemperatureF,DewpointF,PressureIn,WindDirection,WindDirectionDegrees,WindSpeedMPH,WindSpeedGustMPH,Humidity,HourlyPrecipIn,Conditions,Clouds,dailyrainin,SolarRadiationWatts/m^2,SoftwareType,DateUTC
2013-10-03 00:02:00,45.0,45.0,-100.00,NE,43,1.0,7.0,99,0.04,,,0.41,0.000000,,2013-10-03 07:02:00,
2013-10-03 00:42:00,45.0,45.0,-100.00,South,172,1.0,2.0,99,0.01,,,0.42,0.000000,,2013-10-03 07:42:00,
2013-10-03 00:52:00,45.0,45.0,-100.00,South,172,1.0,2.0,99,0.01,,,0.42,0.000000,,2013-10-03 07:52:00,
2013-10-03 01:02:00,45.0,45.0,-100.00,South,172,1.0,2.0,99,0.01,,,0.42,0.000000,,2013-10-03 08:02:00,
2013-10-03 01:42:00,44.0,43.0,-100.00,ENE,65,2.0,6.0,98,0.01,,,0.43,0.000000,,2013-10-03 08:42:00,
2013-10-03 01:52:00,44.0,43.0,-100.00,ENE,65,2.0,6.0,98,0.01,,,0.43,0.000000,,2013-10-03 08:52:00,
2013-10-03 02:02:00,44.0,43.0,-100.00,ENE,65,2.0,6.0,98,0.01,,,0.43,0.000000,,2013-10-03 09:02:00,
2013-10-03 02:43:00,44.0,42.0,-100.00,NW,326,1.0,3.0,93,0.00,,,0.43,0.000000,,2013-10-03 09:43:00,
2013-10-03 02:53:00,44.0,42.0,-100.00,NW,326,1.0,3.0,93,0.00,,,0.43,0.000000,,2013-10-03 09:53:00,
2013-10-03 03:03:00,44.0,42.0,-100.00,NW,326,1.0,3.0,93,0.00,,,0.43,0.000000,,2013-10-03 10:03:00,
2013-10-03 03:43:00,44.0,41.0,-100.00,NNW,327,2.0,3.0,89,0.00,,,0.43,0.000000,,2013-10-03 10:43:00,
2013-10-03 03:52:00,44.0,41.0,-100.00,NNW,327,2.0,3.0,89,0.00,,,0.43,0.000000,,2013-10-03 10:52:00,
2013-10-03 04:02:00,44.0,41.0,-100.00,NNW,327,2.0,3.0,89,0.00,,,0.43,0.000000,,2013-10-03 11:02:00,
2013-10-03 04:42:00,44.0,42.0,-100.00,SSE,167,3.0,5.0,93,0.00,,,0.43,0.000000,,2013-10-03 11:42:00,
2013-10-03 04:52:00,44.0,42.0,-100.00,SSE,167,3.0,5.0,93,0.00,,,0.43,0.000000,,2013-10-03 11:52:00,
2013-10-03 05:01:00,44.0,42.0,-100.00,SSE,167,3.0,5.0,93,0.00,,,0.43,0.000000,,2013-10-03 12:01:00,
2013-10-03 05:42:00,42.0,41.0,-100.00,South,179,3.0,6.0,96,0.00,,,0.43,0.000000,,2013-10-03 12:42:00,
2013-10-03 05:52:00,42.0,41.0,-100.00,South,179,3.0,6.0,96,0.00,,,0.43,0.000000,,2013-10-03 12:52:00,
2013-10-03 06:01:00,42.0,41.0,-100.00,South,179,3.0,6.0,96,0.00,,,0.43,0.000000,,2013-10-03 13:01:00,
2013-10-03 06:42:00,44.0,43.0,-100.00,NE,43,1.0,6.0,98,0.00,,,0.43,0.000000,,2013-10-03 13:42:00,
2013-10-03 06:52:00,44.0,43.0,-100.00,NE,43,1.0,6.0,98,0.00,,,0.43,0.000000,,2013-10-03 13:52:00,
2013-10-03 07:02:00,44.0,43.0,-100.00,NE,43,1.0,6.0,98,0.00,,,0.43,0.000000,,2013-10-03 14:02:00,
2013-10-03 07:42:00,42.0,41.0,-100.00,SSE,147,4.0,6.0,95,0.01,,,0.44,0.000000,,2013-10-03 14:42:00,
2013-10-03 07:52:00,42.0,41.0,-100.00,SSE,147,4.0,6.0,95,0.01,,,0.44,0.000000,,2013-10-03 14:52:00,
2013-10-03 08:01:00,42.0,41.0,-100.00,SSE,147,4.0,6.0,95,0.01,,,0.44,0.000000,,2013-10-03 15:01:00,
2013-10-03 08:43:00,43.0,42.0,-100.00,SSE,152,5.0,6.0,95,0.00,,,0.44,37.000000,,2013-10-03 15:43:00,
2013-10-03 08:53:00,43.0,42.0,-100.00,SSE,152,5.0,6.0,95,0.00,,,0.44,37.000000,,2013-10-03 15:53:00,
2013-10-03 09:03:00,43.0,42.0,-100.00,SSE,152,5.0,6.0,95,0.00,,,0.44,37.000000,,2013-10-03 16:03:00,
2013-10-03 09:43:00,45.0,43.0,-100.00,SSE,157,5.0,7.0,92,0.00,,,0.44,213.000000,,2013-10-03 16:43:00,
2013-10-03 09:53:00,45.0,43.0,-100.00,SSE,157,5.0,7.0,92,0.00,,,0.44,213.000000,,2013-10-03 16:53:00,
2013-10-03 10:03:00,45.0,43.0,-100.00,SSE,157,5.0,7.0,92,0.00,,,0.44,213.000000,,2013-10-03 17:03:00,
2013-10-03 10:42:00,52.0,48.0,-100.00,South,174,5.0,7.0,87,0.00,,,0.44,383.000000,,2013-10-03 17:42:00,
2013-10-03 10:52:00,52.0,48.0,-100.00,South,174,5.0,7.0,87,0.00,,,0.44,383.000000,,2013-10-03 17:52:00,
2013-10-03 11:01:00,52.0,48.0,-100.00,South,174,5.0,7.0,87,0.00,,,0.44,383.000000,,2013-10-03 18:01:00,
2013-10-03 11:42:00,51.0,47.0,-100.00,South,179,5.0,7.0,87,0.00,,,0.44,549.000000,,2013-10-03 18:42:00,
2013-10-03 11:52:00,51.0,47.0,-100.00,South,179,5.0,7.0,87,0.00,,,0.44,549.000000,,2013-10-03 18:52:00,
2013-10-03 12:01:00,51.0,47.0,-100.00,South,179,5.0,7.0,87,0.00,,,0.44,549.000000,,2013-10-03 19:01:00,
2013-10-03 12:42:00,57.0,47.0,-100.00,South,175,6.0,9.0,70,0.00,,,0.44,736.000000,,2013-10-03 19:42:00,
2013-10-03 12:52:00,57.0,47.0,-100.00,South,175,6.0,9.0,70,0.00,,,0.44,736.000000,,2013-10-03 19:52:00,
2013-10-03 13:02:00,57.0,47.0,-100.00,South,175,6.0,9.0,70,0.00,,,0.44,736.000000,,2013-10-03 20:02:00,
2013-10-03 13:42:00,54.0,45.0,-100.00,SSE,154,2.0,7.0,71,0.00,,,0.42,487.000000,,2013-10-03 20:42:00,
2013-10-03 13:52:00,54.0,45.0,-100.00,SSE,154,2.0,7.0,71,0.00,,,0.42,487.000000,,2013-10-03 20:52:00,
2013-10-03 14:02:00,54.0,45.0,-100.00,SSE,154,2.0,7.0,71,0.00,,,0.42,487.000000,,2013-10-03 21:02:00,
2013-10-03 14:43:00,58.0,48.0,-100.00,ENE,76,4.0,10.0,70,0.00,,,0.36,674.000000,,2013-10-03 21:43:00,
2013-10-03 14:54:00,58.0,48.0,-100.00,ENE,76,4.0,10.0,70,0.00,,,0.36,674.000000,,2013-10-03 21:54:00,
2013-10-03 15:04:00,58.0,48.0,-100.00,ENE,76,4.0,10.0,70,0.00,,,0.36,674.000000,,2013-10-03 22:04:00,
2013-10-03 15:43:00,59.0,45.0,-100.00,East,98,2.0,8.0,59,0.00,,,0.32,559.000000,,2013-10-03 22:43:00,
2013-10-03 15:54:00,59.0,45.0,-100.00,East,98,2.0,8.0,59,0.00,,,0.32,559.000000,,2013-10-03 22:54:00,
2013-10-03 16:03:00,59.0,45.0,-100.00,East,98,2.0,8.0,59,0.00,,,0.32,559.000000,,2013-10-03 23:03:00,
2013-10-03 16:43:00,58.0,45.0,-100.00,ESE,117,2.0,12.0,62,0.00,,,0.28,552.000000,,2013-10-03 23:43:00,
2013-10-03 16:52:00,58.0,45.0,-100.00,ESE,117,2.0,12.0,62,0.00,,,0.28,552.000000,,2013-10-03 23:52:00,
2013-10-03 17:02:00,58.0,45.0,-100.00,ESE,117,2.0,12.0,62,0.00,,,0.28,552.000000,,2013-10-04 00:02:00,
2013-10-03 17:42:00,56.0,42.0,-100.00,SE,141,3.0,10.0,59,0.00,,,0.28,391.000000,,2013-10-04 00:42:00,
2013-10-03 17:52:00,56.0,42.0,-100.00,SE,141,3.0,10.0,59,0.00,,,0.28,391.000000,,2013-10-04 00:52:00,
2013-10-03 18:02:00,56.0,42.0,-100.00,SE,141,3.0,10.0,59,0.00,,,0.28,391.000000,,2013-10-04 01:02:00,
2013-10-03 18:42:00,53.0,39.0,-100.00,East,88,5.0,10.0,60,0.00,,,0.13,205.000000,,2013-10-04 01:42:00,
2013-10-03 18:52:00,53.0,39.0,-100.00,East,88,5.0,10.0,60,0.00,,,0.13,205.000000,,2013-10-04 01:52:00,
2013-10-03 19:02:00,53.0,39.0,-100.00,East,88,5.0,10.0,60,0.00,,,0.13,205.000000,,2013-10-04 02:02:00,
2013-10-03 19:43:00,51.0,40.0,-100.00,ESE,110,5.0,10.0,67,0.00,,,0.12,11.000000,,2013-10-04 02:43:00,
2013-10-03 19:52:00,51.0,40.0,-100.00,ESE,110,5.0,10.0,67,0.00,,,0.12,11.000000,,2013-10-04 02:52:00,
2013-10-03 20:02:00,51.0,40.0,-100.00,ESE,110,5.0,10.0,67,0.00,,,0.12,11.000000,,2013-10-04 03:02:00,
2013-10-03 20:44:00,49.0,40.0,-100.00,ENE,64,4.0,12.0,72,0.00,,,0.12,0.000000,,2013-10-04 03:44:00,
2013-10-03 20:59:00,49.0,40.0,-100.00,ENE,64,4.0,12.0,72,0.00,,,0.12,0.000000,,2013-10-04 03:59:00,
2013-10-03 21:08:00,47.0,40.0,-100.00,SSE,153,6.0,10.0,77,0.00,,,0.11,0.000000,,2013-10-04 04:08:00,
2013-10-03 21:51:00,47.0,40.0,-100.00,SSE,153,6.0,10.0,77,0.00,,,0.11,0.000000,,2013-10-04 04:51:00,
2013-10-03 22:06:00,47.0,40.0,-100.00,SSE,153,6.0,10.0,77,0.00,,,0.11,0.000000,,2013-10-04 05:06:00,
2013-10-03 22:49:00,47.0,41.0,-100.00,South,169,4.0,16.0,80,0.00,,,0.07,0.000000,,2013-10-04 05:49:00,
2013-10-03 22:57:00,47.0,41.0,-100.00,South,169,4.0,16.0,80,0.00,,,0.07,0.000000,,2013-10-04 05:57:00,
2013-10-03 23:05:00,47.0,41.0,-100.00,South,169,4.0,16.0,80,0.00,,,0.07,0.000000,,2013-10-04 06:05:00,
2013-10-03 23:48:00,45.0,40.0,-100.00,South,173,5.0,9.0,84,0.00,,,0.03,0.000000,,2013-10-04 06:48:00,
2013-10-03 23:57:00,45.0,40.0,-100.00,South,173,5.0,9.0,84,0.00,,,0.03,0.000000,,2013-10-04 06:57:00,